User: anonymous   Login
Location: Stillwell
(40.4602°N, 82.0928°W)
Time: 14:00:31
(UTC-04:00)
Language:

Cosmos 2333 Rocket - Orbit

View from above orbital plane
View from above orbital plane
View from above satellite
View from above satellite

Ground track
Ground track

The orbit data is extracted from the following two-line orbital elements,

1 24298U 96051B   16237.20886958  .00000114  00000-0  87896-4 0  9999
2 24298  70.8412 328.0210 0019133 261.1712  98.7241 14.12425333 29888
Epoch (UTC): 24 August 2016 05:00:46
Eccentricity: 0.0019133
inclination: 70.8412°
perigee height: 837 km
apogee height: 865 km
right ascension of ascending node: 328.0210°
argument of perigee: 261.1712°
revolutions per day: 14.12425333
mean anomaly at epoch: 98.7241°
orbit number at epoch: 2988

The dashed part of the orbit path shows where the satellite is in the earth's shadow,  

DLR